This is the latest recevied weather packets stored in our database for station/object HB9EKO-12. If no packets are shown the sender has not sent any weather packets the latest 10 day(s).
| Time | Temp. | Humidity | Pressure | Rain* | Wind** | Luminosity | Snow |
|---|---|---|---|---|---|---|---|
| 1777558818 | 21.11° C | 24% | 1022 hPa | - | - | - | - |
| 1777557913 | 20.56° C | 25% | 1022 hPa | - | - | - | - |
| 1777557008 | 20° C | 26% | 1022 hPa | - | - | - | - |
| 1777556102 | 20° C | 28% | 1022 hPa | - | - | - | - |
| 1777555197 | 19.44° C | 28% | 1022 hPa | - | - | - | - |
| 1777554292 | 19.44° C | 29% | 1022 hPa | - | - | - | - |
| 1777553387 | 18.89° C | 30% | 1022 hPa | - | - | - | - |
| 1777552481 | 18.89° C | 32% | 1022 hPa | - | - | - | - |
| 1777551576 | 18.33° C | 30% | 1022 hPa | - | - | - | - |
| 1777550671 | 17.78° C | 33% | 1022 hPa | - | - | - | - |
| 1777549766 | 17.78° C | 31% | 1023 hPa | - | - | - | - |
| 1777548860 | 17.22° C | 33% | 1023 hPa | - | - | - | - |
| 1777547955 | 17.22° C | 34% | 1023 hPa | - | - | - | - |
| 1777547050 | 16.67° C | 34% | 1023 hPa | - | - | - | - |
| 1777546145 | 16.67° C | 35% | 1023 hPa | - | - | - | - |
| 1777545239 | 16.11° C | 35% | 1023 hPa | - | - | - | - |
| 1777544334 | 15.56° C | 33% | 1023 hPa | - | - | - | - |
| 1777543429 | 15.56° C | 36% | 1023 hPa | - | - | - | - |
| 1777542524 | 14.44° C | 37% | 1023 hPa | - | - | - | - |
| 1777541618 | 14.44° C | 36% | 1023 hPa | - | - | - | - |
| 1777540713 | 13.89° C | 38% | 1023 hPa | - | - | - | - |
| 1777539808 | 13.33° C | 38% | 1023 hPa | - | - | - | - |
| 1777538903 | 12.22° C | 39% | 1023 hPa | - | - | - | - |
| 1777537998 | 11.67° C | 41% | 1023 hPa | - | - | - | - |
| 1777537092 | 10.56° C | 41% | 1024 hPa | - | - | - | - |
* Rain since midnight (hover to see other rain measurements)
** Current wind speed in m/s (hover to see current wind gust speed)